Location: Kra?nica
(53.4833°N, 14.6167°E)
Time: 17:57:50
(UTC+00:00)

Cosmos 1400 Rocket - Pass Details

Date: 23 May 2024
Orbit: 501 x 544 km, 81.2° (Epoch: 13 June)

Event Time Altitude Azimuth Distance (km) Brightness Sun altitude
Exits shadow 00:32:26 17° 234° (SW) 1,416 4.4 -13.1°
Maximum altitude 00:34:58 34° 292° (WNW) 906 3.9 -13.0°
Drops below altitude 10° 00:38:40 10° 359° (N) 1,816 6.6 -12.8°
Sets 00:40:58 0° 8° (N) 2,707 8.0 -12.6°
